スコッティ彗星

377P/Scotti (2020)

English version
Home page
Updated on July 8, 2020

---------------------------------------------------------------------

・ プロフィール

符号 377P/2019 E1
検出日 2019年3月9日
検出光度 20.3等
検出者 E. Schwab (Egelsbach, Germany), D. Abreu (European Space Agency's Optical Ground Station at Tenerife, Spain)

・ 写真集

・ 軌道要素

Epoch 2020 July 10.0 TT = JDT 2459040.5
T 2020 July 11.15536 TT                                 Rudenko
q   5.0167808            (2000.0)            P               Q
n   0.05666090     Peri.  354.95697     -0.75374402     +0.64739483
a   6.7134703      Node   226.05896     -0.59732409     -0.74655484
e   0.2527291      Incl.    9.02208     -0.27399613     -0.15341383
P  17.4
From 170 observations 2002 Apr. 5-2020 June 12, mean residual 0".4.

・ 光度変化

        m1 = 2.0 + 5 logΔ + 20.0 log r

---------------------------------------------------------------------

軌道要素はM.P.E.C. 2020-N08に掲載されたものです。
光度グラフはComet for Windowsで作成したものです。

---------------------------------------------------------------------

Copyright(C) Seiichi Yoshida (comet@aerith.net). All rights reserved.